Tracking 19286 objects as of 18-Nov-2018
HD Live streaming from Space Station
objects crossing your sky now

OPS 5346

Track OPS 5346 now!
OPS 5346 is classified as:


NORAD ID: 4418
Int'l Code: 1970-046A
Perigee: 35,765.0 km
Apogee: 35,834.5 km
Inclination: 4.7 °
Period: 1,436.4 minutes
Semi major axis: 42170 km
RCS: Unknown
Launch date: June 19, 1970
Source: United States (US)
Launch site: AIR FORCE EASTERN TEST RANGE (AFETR)
aabbcc
Your satellite tracking list
Your tracking list is empty




NASA's NSSDC Master Catalog

Two Line Element Set (TLE):
1 04418U 70046A   18298.50602741 0.00000000  00000-0  00000-0 0    00
2 04418   4.6685 294.1359 0008245 226.5887 133.3547  1.00250373    05
Source of the keplerian elements: McCants